Date String (YYYY-MM-DD hh:mm:ss) UTC,Instrument flags,Ambient pressure (hPa),Sample flow (lpm),Bypass flow (lpm),Sample temperature (°C),Ambient temperature (°C),ASC tube jacket temperature (°C),LED temperature (°C),Box temperature (°C),Sample RH (%),Span deviation,Mass concentration (μg/m³),Mass concentration (μg/m³),Mass concentration (μg/m³)
DateTimeUTC,F1_M11,P_M11,Q1_M11,Q2_M11,T1_M11,T2_M11,T3_M11,T4_M11,T5_M11,U1_M11,ZSPAN_M11,X0_M11,X2_M11,X1_M11
2022-02-20 03:00:00,,0819.9,5.02,0.00,23.1,22.3,00.0,32.2,24.8,07.3,0000.0,0002.08,0000.52,0000.45
2022-02-20 03:01:00,,0819.9,4.99,0.00,23.1,22.3,00.0,32.2,24.8,07.5,0000.0,0002.36,0000.52,0000.45
2022-02-20 03:02:00,,0819.9,4.99,0.00,23.0,22.3,00.0,32.2,24.8,07.4,0000.0,0002.82,0000.53,0000.45
2022-02-20 03:03:00,,0819.9,5.00,0.00,23.0,22.3,00.0,32.1,24.7,07.4,0000.0,0002.82,0000.53,0000.45
2022-02-20 03:04:00,,0819.9,5.01,0.00,23.0,22.3,00.0,32.1,24.7,07.4,0000.0,0002.82,0000.53,0000.45
2022-02-20 03:05:00,,0819.9,5.00,0.00,23.0,22.3,00.0,32.1,24.7,07.4,0000.0,0002.81,0000.52,0000.45
2022-02-20 03:06:00,,0819.9,4.99,0.00,23.0,22.3,00.0,32.1,24.7,07.5,0000.0,0002.83,0000.52,0000.45
2022-02-20 03:07:00,,0819.9,5.02,0.00,23.0,22.3,00.0,32.1,24.6,07.3,0000.0,0002.77,0000.50,0000.44
2022-02-20 03:08:00,,0819.9,5.00,0.00,23.0,22.3,00.0,32.1,24.6,07.5,0000.0,0003.45,0000.53,0000.45
2022-02-20 03:09:00,,0819.9,4.99,0.00,23.0,22.3,00.0,32.1,24.7,07.4,0000.0,0003.78,0000.55,0000.45
2022-02-20 03:10:00,,0819.9,4.99,0.00,23.0,22.3,00.0,32.1,24.7,07.3,0000.0,0003.63,0000.54,0000.45
2022-02-20 03:11:00,,0819.9,5.01,0.00,23.0,22.3,00.0,32.1,24.7,07.3,0000.0,0003.62,0000.54,0000.44
2022-02-20 03:12:00,,0819.8,5.00,0.00,23.0,22.3,00.0,32.1,24.7,07.6,0000.0,0003.37,0000.55,0000.43
2022-02-20 03:13:00,,0819.8,4.99,0.00,23.0,22.3,00.0,32.1,24.6,07.3,0000.0,0002.98,0000.57,0000.44
2022-02-20 03:14:00,,0819.9,5.00,0.00,23.0,22.3,00.0,32.1,24.7,07.4,0000.0,0003.00,0000.59,0000.44
2022-02-20 03:15:00,,0819.9,5.02,0.00,23.0,22.3,00.0,32.1,24.7,07.6,0000.0,0003.01,0000.59,0000.44
2022-02-20 03:16:00,,0819.9,4.99,0.00,23.0,22.3,00.0,32.1,24.8,07.8,0000.0,0003.05,0000.60,0000.44
2022-02-20 03:17:00,,0819.9,4.99,0.00,23.0,22.3,00.0,32.1,24.7,07.3,0000.0,0003.38,0000.61,0000.44
2022-02-20 03:18:00,,0819.9,5.00,0.00,23.0,22.3,00.0,32.1,24.7,07.4,0000.0,0003.47,0000.62,0000.45
2022-02-20 03:19:00,,0819.9,5.00,0.00,23.0,22.2,00.0,32.1,24.7,07.4,0000.0,0002.84,0000.62,0000.46
2022-02-20 03:20:00,,0819.9,5.00,0.00,23.1,22.2,00.0,32.1,24.8,07.4,0000.0,0002.06,0000.62,0000.46
2022-02-20 03:21:00,,0819.9,5.02,0.00,23.1,22.2,00.0,32.1,24.8,07.4,0000.0,0001.84,0000.65,0000.47
2022-02-20 03:22:00,,0819.9,4.99,0.00,23.1,22.3,00.0,32.1,24.8,07.5,0000.0,0001.90,0000.68,0000.48
2022-02-20 03:23:00,,0819.8,5.01,0.00,23.1,22.3,00.0,32.1,24.8,07.4,0000.0,0001.90,0000.68,0000.50
2022-02-20 03:24:00,,0819.9,4.99,0.00,23.1,22.3,00.0,32.1,24.9,07.4,0000.0,0001.87,0000.66,0000.50
2022-02-20 03:25:00,,0820.0,5.00,0.00,23.1,22.3,00.0,32.1,24.8,07.5,0000.0,0001.87,0000.66,0000.50
2022-02-20 03:26:00,,0819.9,5.00,0.00,23.1,22.3,00.0,32.1,24.9,07.3,0000.0,0001.87,0000.66,0000.51
2022-02-20 03:27:00,,0819.9,5.01,0.00,23.1,22.4,00.0,32.1,24.9,07.4,0000.0,0001.89,0000.68,0000.52
2022-02-20 03:28:00,,0819.9,4.99,0.00,23.2,22.4,00.0,32.1,24.9,07.3,0000.0,0001.49,0000.67,0000.53
2022-02-20 03:29:00,,0819.9,5.00,0.00,23.2,22.4,00.0,32.1,24.9,07.5,0000.0,0001.47,0000.67,0000.52
2022-02-20 03:30:00,,0819.9,5.01,0.00,23.2,22.4,00.0,32.1,24.9,07.3,0000.0,0001.39,0000.65,0000.52
2022-02-20 03:31:00,,0819.8,5.00,0.00,23.2,22.3,00.0,32.1,24.9,07.3,0000.0,0001.30,0000.63,0000.53
2022-02-20 03:32:00,,0819.8,4.99,0.00,23.2,22.3,00.0,32.1,24.9,07.4,0000.0,0000.86,0000.62,0000.53
2022-02-20 03:33:00,,0819.8,5.01,0.00,23.1,22.3,00.0,32.1,24.9,07.4,0000.0,0000.82,0000.61,0000.52
2022-02-20 03:34:00,,0819.8,4.99,0.00,23.1,22.3,00.0,32.1,24.9,07.6,0000.0,0000.81,0000.61,0000.51
2022-02-20 03:35:00,,0819.8,4.99,0.00,23.1,22.3,00.0,32.1,24.8,07.6,0000.0,0000.86,0000.62,0000.52
2022-02-20 03:36:00,,0819.8,5.01,0.00,23.1,22.2,00.0,32.1,24.7,07.7,0000.0,0000.92,0000.65,0000.52
2022-02-20 03:37:00,,0819.5,5.00,0.00,23.1,22.2,00.0,32.1,24.7,07.7,0000.0,0000.99,0000.67,0000.52
2022-02-20 03:38:00,,0819.6,4.99,0.00,23.1,22.2,00.0,32.1,24.9,07.3,0000.0,0000.90,0000.63,0000.51
2022-02-20 03:39:00,,0819.6,4.99,0.00,23.1,22.1,00.0,32.1,24.9,07.3,0000.0,0000.88,0000.62,0000.51
2022-02-20 03:40:00,,0819.7,5.01,0.00,23.1,22.1,00.0,32.1,24.9,07.4,0000.0,0000.85,0000.61,0000.51
2022-02-20 03:41:00,,0819.6,5.01,0.00,23.0,22.1,00.0,32.1,24.8,07.4,0000.0,0000.87,0000.63,0000.51
2022-02-20 03:42:00,,0819.5,4.98,0.00,23.0,22.1,00.0,32.1,24.7,07.6,0000.0,0000.91,0000.64,0000.52
2022-02-20 03:43:00,,0819.5,4.99,0.00,23.0,22.1,00.0,32.1,24.7,07.5,0000.0,0000.96,0000.67,0000.52
2022-02-20 03:44:00,,0819.5,5.01,0.00,23.0,22.1,00.0,32.1,24.6,07.5,0000.0,0000.95,0000.66,0000.53
2022-02-20 03:45:00,,0819.6,5.01,0.00,23.0,22.0,00.0,32.1,24.5,07.6,0000.0,0001.00,0000.68,0000.53
2022-02-20 03:46:00,,0819.5,4.99,0.00,23.0,22.0,00.0,32.1,24.6,07.7,0000.0,0000.97,0000.67,0000.54
2022-02-20 03:47:00,,0819.5,5.01,0.00,23.0,22.0,00.0,32.1,24.7,07.6,0000.0,0000.90,0000.65,0000.54
2022-02-20 03:48:00,,0819.4,4.98,0.00,22.9,22.0,00.0,32.1,24.6,07.5,0000.0,0000.80,0000.62,0000.54
2022-02-20 03:49:00,,0819.3,5.02,0.00,22.9,22.0,00.0,32.0,24.6,07.5,0000.0,0000.81,0000.62,0000.54
2022-02-20 03:50:00,,0819.3,5.00,0.00,22.9,22.0,00.0,32.0,24.6,07.5,0000.0,0000.85,0000.64,0000.54
2022-02-20 03:51:00,,0819.3,5.00,0.00,22.9,22.0,00.0,32.0,24.6,07.6,0000.0,0000.86,0000.64,0000.54
2022-02-20 03:52:00,,0819.3,4.99,0.00,22.9,22.0,00.0,32.0,24.6,07.5,0000.0,0000.89,0000.64,0000.53
2022-02-20 03:53:00,,0819.2,5.01,0.00,22.9,22.1,00.0,32.0,24.6,07.6,0000.0,0001.52,0000.63,0000.53
2022-02-20 03:54:00,,0819.2,5.00,0.00,22.9,22.0,00.0,32.0,24.5,07.7,0000.0,0001.58,0000.62,0000.52
2022-02-20 03:55:00,,0819.2,4.99,0.00,22.9,22.0,00.0,32.0,24.5,07.7,0000.0,0001.62,0000.64,0000.52
2022-02-20 03:56:00,,0819.2,5.01,0.00,22.9,22.0,00.0,32.0,24.5,07.7,0000.0,0001.65,0000.66,0000.52
2022-02-20 03:57:00,,0819.1,5.00,0.00,22.9,22.0,00.0,32.0,24.6,07.7,0000.0,0002.15,0000.70,0000.52
2022-02-20 03:58:00,,0819.0,4.98,0.00,22.9,21.9,00.0,32.0,24.6,07.6,0000.0,0003.12,0000.71,0000.51
2022-02-20 03:59:00,,0819.1,5.00,0.00,22.8,21.9,00.0,32.0,24.6,07.5,0000.0,0003.11,0000.71,0000.51
